{"data":{"norad_id":64613,"epoch":"2026-05-24T23:36:52.797024Z","epoch_age_seconds":79432,"freshness":"FRESH","line1":"1 64613U 25137V   26144.98394441  .00026493  00000+0  90331-3 0  9999","line2":"2 64613  53.1594 341.0139 0000966  96.9042 263.2069 15.30204469 52516","mean_motion":15.30204469,"eccentricity":9.66e-5,"inclination_deg":53.1594,"raan_deg":341.0139,"arg_perigee_deg":96.9042,"mean_anomaly_deg":263.2069,"bstar":0.00090331,"rev_number":5251,"period_min":94.105070869454,"perigee_km":474.53969330243,"apogee_km":475.86375834426,"semimajor_km":6853.3387258233,"source":"CELESTRAK","updated_at":"2026-05-25T13:38:20.497534Z"}}